sat.trackr.live / text

‹ back to catalog

STARLINK-35330

NORAD 65791 · 2025-218A

PAYLOAD ACTIVE UNKNOWN

§ Identity

Operator
Country
US
Launch date
2025-09-26
Launch site
AFWTR
Launch vehicle
Mass (kg)
RCS (m²)

Purposes: comms

External: N2YO · Heavens-Above · Gunter

§ Orbital elements

Epoch: 2026-09-20T21:55:19.027488Z

Period
93.91 min
Inclination
97.2827°
Eccentricity
0.0001441
Mean motion
15.33445430 rev/d
Perigee alt
464.6 km
Apogee alt
466.5 km
Semi-major
6,843.7 km
B*
1.8695e-4
RAAN
121.2247°
Arg perigee
72.6497°
Mean anomaly
287.4904°
Rev number
5,439

§ Raw data

STARLINK-353301 65791U 25218A   26263.91341467  .00005965  00000+0  18695-3 0  99962 65791  97.2827 121.2247 0001441  72.6497 287.4904 15.33445430 54396

JSON: /api/v1/satellites/65791 · /tle

For live sub-satellite position, see the globe view (requires WebGL).

§ Visibility from observer

Set your observer location to see the next 7 days of passes ≥ 10°. The values pass through the URL so the page stays shareable.

No JS? Fill the form by hand. The geolocation button needs JavaScript.